Effective Sunday, March 17, 2024, the National Weather Service National Data Buoy Center will discontinue its Dial-A-Buoy Interactive Voice Response system. For more information, see Service Change Notice 24-06 (PDF).

Station AGCM4 - 9014070 - Algonac, MI Image indicating link to RSS feed of recent meteorological observations for station AGCM4


Conditions at AGCM4 as of
(6:18 pm EST)
2318 GMT on 02/27/2024:
     

Click on the graph icon in the table below to see a time series plot of the last five days of that observation.

5-day plot - Atmospheric Pressure Atmospheric Pressure (PRES):29.40 in
5-day plot - Water Temperature Water Temperature (WTMP): 36.5 °F
NOS Water Level Observation Network Water Level
Previous observations
TIME
(EST)
5-day plot - Wind Direction
WDIR
 
5-day plot - Wind Speed
WSPD
kts
5-day plot - Wind Gust
GST
kts
5-day plot - Wave Height
WVHT
ft
5-day plot - Dominant Wave Period
DPD
sec
5-day plot - Average Wave Period
APD
sec
5-day plot - Mean Wave Direction
MWD
 
5-day plot - Atmospheric Pressure
PRES
in
5-day plot - Pressure Tendency
PTDY
in
5-day plot - Air Temperature
ATMP
°F
5-day plot - Water Temperature
WTMP
°F
5-day plot - Dew Point
DEWP
°F
5-day plot - Salinity
SAL
psu
5-day plot - Visibility
VIS
nmi
5-day plot - Tide (above MLLW)
TIDE
ft
2024-02-27 06:12 pm-------29.40-- 36.5----
2024-02-27 06:06 pm-------29.40-- 36.5----
2024-02-27 06:00 pm-------29.40+0.00------
2024-02-27 05:54 pm-------29.40-------
2024-02-27 05:48 pm-------29.40- 58.6 36.5----
2024-02-27 05:42 pm-------29.40- 58.1 36.5----
2024-02-27 05:36 pm-------29.39- 59.0 36.5----
2024-02-27 05:30 pm-------29.39- 61.0 36.5----
2024-02-27 05:24 pm-------29.39- 59.9 36.5----
2024-02-27 05:18 pm-------29.39- 57.0 36.5----
2024-02-27 05:12 pm-------29.39- 57.9 36.5----
2024-02-27 05:06 pm-------29.39- 58.3 36.5----
2024-02-27 05:00 pm-------29.39-0.02 59.7 36.3----
2024-02-27 04:54 pm-------29.39- 58.3 36.5----
2024-02-27 04:48 pm-------29.39- 60.1 36.3----
2024-02-27 04:42 pm-------29.39- 59.2 36.3----
2024-02-27 04:36 pm-------29.39- 60.6 36.5----
2024-02-27 04:30 pm-------29.39- 59.0 36.3----
2024-02-27 04:24 pm-------29.39- 59.2 36.3----
2024-02-27 04:18 pm-------29.39- 60.4 36.3----
2024-02-27 04:12 pm-------29.39- 59.4 36.3----
2024-02-27 04:06 pm-------29.39- 60.3 36.3----
2024-02-27 04:00 pm-------29.39-0.04 63.3 36.3----
2024-02-27 03:54 pm-------29.39- 62.8 36.3----
2024-02-27 03:48 pm-------29.39- 60.4 36.3----
2024-02-27 03:42 pm-------29.39- 60.8 36.3----
2024-02-27 03:36 pm-------29.39- 57.9 36.3----
2024-02-27 03:30 pm-------29.39- 59.5 36.3----
2024-02-27 03:24 pm-------29.39- 60.3 36.3----
2024-02-27 03:18 pm-------29.40- 59.7 36.3----
2024-02-27 03:12 pm-------29.40- 60.8 36.3----
2024-02-27 03:06 pm-------29.40- 60.3 36.1----
2024-02-27 03:00 pm-------29.40-0.06 58.8 36.1----
2024-02-27 02:54 pm-------29.40- 59.0 36.1----
2024-02-27 02:48 pm-------29.40- 59.0 36.1----
2024-02-27 02:42 pm-------29.40- 59.2 36.1----
2024-02-27 02:36 pm-------29.40- 59.4 36.1----
2024-02-27 02:30 pm-------29.40- 59.2 36.1----
2024-02-27 02:24 pm-------29.40- 58.3 36.1----
2024-02-27 02:18 pm-------29.40- 57.7 36.1----
2024-02-27 02:12 pm-------29.40- 58.1 36.1----
2024-02-27 02:06 pm-------29.40- 59.2 36.1----
2024-02-27 02:00 pm-------29.41-0.08 58.8 36.1----
2024-02-27 01:54 pm-------29.41- 58.3 36.1----
2024-02-27 01:48 pm-------29.41- 59.4 36.1----
2024-02-27 01:42 pm-------29.41- 57.9 36.1----
2024-02-27 01:36 pm-------29.42- 57.6 36.0----
2024-02-27 01:30 pm-------29.42- 56.7 36.0----
2024-02-27 01:24 pm-------29.43- 57.6 36.0----
2024-02-27 01:18 pm-------29.43- 57.6 36.0----
2024-02-27 01:12 pm-------29.43- 58.8 36.0----
2024-02-27 01:06 pm-------29.43- 57.2 36.0----
2024-02-27 01:00 pm-------29.43-0.06 57.2 36.0----
2024-02-27 12:54 pm-------29.44- 57.7 36.0----
2024-02-27 12:48 pm-------29.44- 55.8 36.0----
2024-02-27 12:42 pm-------29.44- 57.9 36.0----
2024-02-27 12:36 pm-------29.44- 56.5 36.0----
2024-02-27 12:30 pm-------29.45- 56.5 35.8----
2024-02-27 12:24 pm-------29.45- 55.0 35.8----
2024-02-27 12:18 pm-------29.45- 56.1 35.8----
2024-02-27 12:12 pm-------29.46- 56.5 35.8----
2024-02-27 12:06 pm-------29.46- 54.0 35.8----
2024-02-27 12:00 pm-------29.46-0.04 54.5 35.8----
2024-02-27 11:54 am-------29.46- 53.8 35.6----
2024-02-27 11:48 am-------29.47- 52.9 35.6----
2024-02-27 11:42 am-------29.47- 55.0 35.6----
2024-02-27 11:36 am-------29.47- 56.1 35.6----
2024-02-27 11:30 am-------29.47- 55.6 35.6----
2024-02-27 11:24 am-------29.48- 56.3 35.6----
2024-02-27 11:18 am-------29.48- 55.6 35.6----
2024-02-27 11:12 am-------29.49- 54.3 35.6----
2024-02-27 11:06 am-------29.49- 55.0 35.6----
2024-02-27 11:00 am-------29.49-0.02 53.6 35.6----
2024-02-27 10:54 am-------29.49- 53.6 35.6----
2024-02-27 10:48 am-------29.49- 53.2 35.6----
2024-02-27 10:42 am-------29.49- 53.6 35.6----
2024-02-27 10:36 am-------29.49- 52.9 35.6----
2024-02-27 10:30 am-------29.49- 52.0 35.6----
2024-02-27 10:24 am-------29.49- 52.7 35.6----
2024-02-27 10:18 am-------29.49- 52.9 35.4----
2024-02-27 10:12 am-------29.49- 52.0 35.6----
2024-02-27 10:06 am-------29.49- 51.3 35.4----
2024-02-27 10:00 am-------29.49-0.02- 35.4----
2024-02-27 09:54 am-------29.49-- 35.4----
2024-02-27 09:48 am-------29.50- 50.2 35.4----
2024-02-27 09:42 am-------29.50- 51.4 35.4----
2024-02-27 09:36 am-------29.50- 50.5 35.4----
2024-02-27 09:30 am-------29.50- 50.0 35.4----
2024-02-27 09:24 am-------29.50- 49.5 35.4----
2024-02-27 09:18 am-------29.50- 50.0 35.4----
2024-02-27 09:12 am-------29.50- 49.3 35.4----
2024-02-27 09:06 am-------29.51- 50.4 35.2----
2024-02-27 09:00 am-------29.51-0.02 50.2 35.2----
2024-02-27 08:54 am-------29.51- 50.4 35.2----
2024-02-27 08:48 am-------29.51- 50.2 35.2----
2024-02-27 08:42 am-------29.51- 49.8 35.2----
2024-02-27 08:36 am-------29.51- 50.0 35.2----
2024-02-27 08:30 am-------29.51- 49.8 35.2----
2024-02-27 08:24 am-------29.51- 50.0 35.2----
2024-02-27 08:18 am-------29.51- 50.4 35.2----
2024-02-27 08:12 am-------29.51- 50.2 35.2----
2024-02-27 08:06 am-------29.51- 49.6 35.2----
2024-02-27 08:00 am-------29.51-0.03 50.4 35.2----
2024-02-27 07:54 am-------29.51- 50.0 35.2----
2024-02-27 07:48 am-------29.51- 49.8 35.2----
2024-02-27 07:42 am-------29.51- 50.2 35.2----
2024-02-27 07:36 am-------29.52- 49.8 35.2----
2024-02-27 07:30 am-------29.52- 50.2 35.2----
2024-02-27 07:24 am-------29.52- 49.8 35.2----
2024-02-27 07:18 am-------29.52- 50.0 35.2----
2024-02-27 07:12 am-------29.52- 50.4 35.2----
2024-02-27 07:06 am-------29.52- 50.2 35.2----
2024-02-27 07:00 am-------29.52-0.05 50.2 35.2----
2024-02-27 06:54 am-------29.52- 49.8 35.2----
2024-02-27 06:36 am-------29.52- 50.0 35.2----
2024-02-27 06:30 am-------29.52- 49.6 35.2----
2024-02-27 06:24 am-------29.52- 49.8 35.2----
2024-02-27 06:18 am-------29.53- 49.8 35.2----
2024-02-27 06:12 am-------29.53- 49.8 35.2----
2024-02-27 06:06 am-------29.53- 49.6 35.2----
2024-02-27 06:00 am-------29.53-0.06- 35.2----
2024-02-27 05:54 am-------29.53-- 35.2----
2024-02-27 05:48 am-------29.54- 50.0 35.2----
2024-02-27 05:42 am-------29.54- 50.4 35.2----
2024-02-27 05:36 am-------29.54- 50.5 35.2----
2024-02-27 05:30 am-------29.54- 50.4 35.2----
2024-02-27 05:24 am-------29.54- 50.4 35.2----
2024-02-27 05:18 am-------29.54- 50.5 35.2----
2024-02-27 05:12 am-------29.54- 50.0 35.1----
2024-02-27 05:06 am-------29.54- 50.4 35.1----
2024-02-27 05:00 am-------29.54-0.08 50.2 35.1----
2024-02-27 04:54 am-------29.54- 50.7 35.1----
2024-02-27 04:48 am-------29.54- 50.5 35.1----
2024-02-27 04:42 am-------29.55- 50.9 35.1----
2024-02-27 04:36 am-------29.55- 50.4 35.1----
2024-02-27 04:30 am-------29.55- 50.7 35.1----
2024-02-27 04:24 am-------29.56- 50.9 35.1----
2024-02-27 04:18 am-------29.56- 50.2 35.1----
2024-02-27 04:12 am-------29.56- 50.7 35.1----
2024-02-27 04:06 am-------29.57- 50.7 35.1----
2024-02-27 04:00 am-------29.57-0.07 51.1 35.1----
2024-02-27 03:54 am-------29.57- 50.7 35.1----
2024-02-27 03:48 am-------29.57- 50.5 35.1----
2024-02-27 03:42 am-------29.57- 50.5 35.1----
2024-02-27 03:36 am-------29.58- 50.4 35.1----
2024-02-27 03:30 am-------29.58- 50.4 35.1----
2024-02-27 03:24 am-------29.58- 50.5 35.1----
2024-02-27 03:18 am-------29.58- 50.0 35.1----
2024-02-27 03:12 am-------29.59- 50.5 35.1----
2024-02-27 03:06 am-------29.59- 50.4 35.1----
2024-02-27 03:00 am-------29.59-0.06 50.0 35.1----
2024-02-27 02:54 am-------29.59- 50.0 35.1----
2024-02-27 02:48 am-------29.60- 50.0 35.1----
2024-02-27 02:42 am-------29.60- 50.2 35.1----
2024-02-27 02:36 am-------29.60- 50.0 35.1----
2024-02-27 02:30 am-------29.60- 50.7 35.1----
2024-02-27 02:24 am-------29.61- 50.7 35.1----
2024-02-27 02:18 am-------29.61- 50.7 35.1----
2024-02-27 02:12 am-------29.61- 49.8 35.1----
2024-02-27 02:06 am-------29.62- 49.8 35.1----
2024-02-27 02:00 am-------29.62-0.06 50.4 35.1----
2024-02-27 01:54 am-------29.62- 49.8 35.1----
2024-02-27 01:48 am-------29.62- 49.8 35.1----
2024-02-27 01:42 am-------29.63- 50.4 35.1----
2024-02-27 01:36 am-------29.63- 50.5 35.1----
2024-02-27 01:30 am-------29.63- 50.7 35.1----
2024-02-27 01:24 am-------29.63- 50.9 35.1----
2024-02-27 01:18 am-------29.63- 51.1 35.1----
2024-02-27 01:12 am-------29.63- 50.7 35.1----
2024-02-27 01:06 am-------29.63- 50.7 35.1----
2024-02-27 01:00 am-------29.64-0.06 51.1 35.1----
2024-02-27 12:54 am-------29.64- 50.5 35.1----
2024-02-27 12:48 am-------29.64- 49.8 35.1----
2024-02-27 12:42 am-------29.64- 49.1 35.1----
2024-02-27 12:36 am-------29.65- 48.9 35.1----
2024-02-27 12:30 am-------29.65- 48.4 35.1----
2024-02-27 12:24 am-------29.65- 47.8 35.1----
2024-02-27 12:18 am-------29.65- 47.3 35.1----
2024-02-27 12:12 am-------29.65- 45.9 35.1----
2024-02-27 12:06 am-------29.65- 45.0 35.1----
2024-02-27 12:00 am-------29.66-0.06 45.0 35.1----
2024-02-26 11:54 pm-------29.66- 44.1 35.1----
2024-02-26 11:48 pm-------29.66- 42.8 35.1----
2024-02-26 11:42 pm-------29.66- 41.9 35.1----
2024-02-26 11:36 pm-------29.66- 40.6 35.1----
2024-02-26 11:30 pm-------29.67- 40.1 35.1----
2024-02-26 11:24 pm-------29.67- 39.7 35.1----
2024-02-26 11:18 pm-------29.67- 39.4 35.1----
2024-02-26 11:12 pm-------29.68- 38.8 35.1----
2024-02-26 11:06 pm-------29.68- 38.7 35.1----
2024-02-26 11:00 pm-------29.68-0.05 38.7 35.2----
2024-02-26 10:54 pm-------29.68- 38.8 35.2----
2024-02-26 10:48 pm-------29.68- 39.0 35.2----
2024-02-26 10:42 pm-------29.69- 39.4 35.2----
2024-02-26 10:36 pm-------29.69- 39.6 35.2----
2024-02-26 10:30 pm-------29.69- 39.6 35.2----
2024-02-26 10:24 pm-------29.70- 39.6 35.2----
2024-02-26 10:18 pm-------29.70- 39.2 35.2----
2024-02-26 10:12 pm-------29.70- 39.7 35.2----
2024-02-26 10:06 pm-------29.70- 40.1 35.2----
2024-02-26 10:00 pm-------29.70-0.04 40.1 35.2----
2024-02-26 09:54 pm-------29.70- 40.1 35.2----
2024-02-26 09:48 pm-------29.71- 39.9 35.2----
2024-02-26 09:42 pm-------29.71- 40.6 35.2----
2024-02-26 09:36 pm-------29.71- 39.9 35.2----
2024-02-26 09:30 pm-------29.71- 39.9 35.2----
2024-02-26 09:24 pm-------29.71- 39.7 35.2----
2024-02-26 09:18 pm-------29.71- 39.9 35.2----
2024-02-26 09:12 pm-------29.72- 39.9 35.2----
2024-02-26 09:06 pm-------29.72- 39.9 35.2----
2024-02-26 09:00 pm-------29.72-0.03- 35.2----
2024-02-26 08:54 pm-------29.72-- 35.2----
2024-02-26 08:48 pm-------29.72-- 35.2----
2024-02-26 08:42 pm-------29.72-- 35.2----
2024-02-26 08:36 pm-------29.72-- 35.2----
2024-02-26 08:30 pm-------29.72- 41.2 35.2----
2024-02-26 08:24 pm-------29.72- 41.5 35.2----
2024-02-26 08:18 pm-------29.72- 41.5 35.2----
2024-02-26 08:12 pm-------29.72- 41.9 35.2----
2024-02-26 08:06 pm-------29.73- 42.4 35.2----
2024-02-26 08:00 pm-------29.73-0.04 42.4-----
2024-02-26 07:54 pm-------29.73- 42.6-----
2024-02-26 07:48 pm-------29.72- 43.5 35.2----
2024-02-26 07:42 pm-------29.73- 43.3 35.2----
2024-02-26 07:36 pm-------29.73- 43.3 35.2----
2024-02-26 07:30 pm-------29.73-------
2024-02-26 07:24 pm-------29.73-------
2024-02-26 07:18 pm-------29.74- 43.3 35.2----
2024-02-26 07:12 pm-------29.74- 43.3 35.2----
2024-02-26 07:06 pm-------29.74- 43.7 35.2----
2024-02-26 07:00 pm-------29.74-0.06 43.7 35.2----
2024-02-26 06:54 pm-------29.74- 44.1 35.2----